Regional Weather Roundup
Issued by NWS

Home | Current Version | Previous Version | Text Only | Print | Product List | Glossary On
Versions: 1 2 3 4 5 6 7 8 9 10 11 12 13 14 15 16 17 18 19 20 21 22 23 24 25 26 27 28 29 30 31 32 33 34 35 36 37 38 39 40 41 42 43 44 45 46 47 48 49 50
000
ASUS42 KTBW 291610
RWRFL
FLORIDA REGIONAL WEATHER ROUNDUP
NATIONAL WEATHER SERVICE TAMPA BAY RUSKIN FL
1200 PM EDT TUE JUL 29 2014

NOTE: "FAIR" INDICATES FEW OR NO CLOUDS BELOW 12,000 FEET WITH NO
SIGNIFICANT WEATHER AND/OR OBSTRUCTIONS TO VISIBILITY.


FLZ001>010-012>015-112-114-115-291700-
PANHANDLE FLORIDA

CITY           SKY/WX    TMP DP  RH WIND       PRES   REMARKS
PENSACOLA      SUNNY     82  65  56 N8        30.04R
PENSACOLA NAS  PTSUNNY   85  67  54 N8        30.03R
MILTON NAS     MOSUNNY   84  63  49 N9        30.04S
CRESTVIEW      MOSUNNY   85  66  53 VRB6      30.05S
DUKE FIELD     MOSUNNY   84  68  58 N10       30.03S
VALPARAISO     MOSUNNY   85  65  51 NE8       30.03R
MARY ESTHER    SUNNY     85  61  43 NE5       30.02R
TRI COUNTY     FAIR      85  67  54 N8        30.03S
PANAMA CITY    FAIR      87  66  49 N8        30.00S
TYNDALL AFB    SUNNY     86  69  58 VRB5      30.01S
APALACHICOLA   MOSUNNY   85  69  58 VRB3      29.98S

STATION/POSITION SKY/WX   TEMP    WIND        PRES    WAVE   SWELL
                          AIR SEA DIR/SP/G            HT/PER HT/PER
                          (F)     (DEG/KT/KT) (MB)    (FT/S) (FT/S)
30.1N   87.6W              80 84   20/  8/ 10 1017.2R   1/ 3
29.2N   88.2W              82 86   30/ 10/ 14 1017.7R
28.8N   86.0W              83 85  280/  8/ 10 1015.9R   3/ 5   3/ 5
PANAMA CITY BEAC           84 78   50/  7/  9 1016.1R
CAPE SAN BLAS    NOT AVBL
TOWER C                    80      20/  7/  8 1015.6R
28.5N   84.5W              83 85  290/ 14/ 16 1015.4R   4/ 6   2/ 9

$$
FLZ011-016>038-118-127-128-134-139-239-291700-
NORTH FLORIDA

CITY           SKY/WX    TMP DP  RH WIND       PRES   REMARKS
MARIANNA       SUNNY     85  68  56 N9        30.01S
TALLAHASSEE    MOSUNNY   88  71  56 N3        29.99S
PERRY          PTSUNNY   84  66  54 NE3       29.97F
CROSS CITY       N/A     87  74  64 VRB3      29.96F HX  95
GAINESVILLE    SUNNY     86  74  67 W9G17     29.96F
MAYPORT NAS    MOSUNNY   88  68  51 VRB3      29.94S
JACKSONVILLE   PTSUNNY   87  67  51 NW6       29.93F
JAX NAS        MOSUNNY   90  68  48 N6        29.95S
JAX CRAIG      SUNNY     88  68  51 VRB3      29.94S
JAX CECIL      MOSUNNY   88  70  55 NW6       29.96S
FERNANDINA BEA FAIR      88  66  48 N5        29.93S
ST AUGUSTINE   MOSUNNY   90  74  59 W8        29.95S HX  99

STATION/POSITION SKY/WX   TEMP    WIND        PRES    WAVE   SWELL
                          AIR SEA DIR/SP/G            HT/PER HT/PER
                          (F)     (DEG/KT/KT) (MB)    (FT/S) (FT/S)
SHELL POINT                80      20/  4/  7   N/A
KEATON BEACH               86     280/  3/  4 1014.8F
CEDAR KEY                  80     320/  5/  6 1015.2S
FERNANDINA                 85 85  320/  2/  4 1013.4F
30.7N   81.3W                 85                N/A     1/ 3
MAYPORT                    84 84  230/  3/  4   N/A
31.4N   80.9W              83 85  340/  4/  4 1013.3R   2/ 4   2/ 8
ST AUGUSTINE               86     270/  8/ 10 1014.8S

$$
FLZ040-043>046-052-053-057-058-063-144-291700-
INTERIOR CENTRAL FLORIDA

CITY           SKY/WX    TMP DP  RH WIND       PRES   REMARKS
OCALA          MOSUNNY   88  72  58 W7        29.97F
LEESBURG       MOSUNNY   78  75  90 SW6       29.98F THUNDER
SANFORD        PTSUNNY   80  76  87 SW8       29.98S THUNDER
ORLANDO EXEC   CLOUDY    79  75  87 W9        29.99S
ORLANDO INTL   CLOUDY    81  72  74 W9        29.99R THUNDER
KISSIMMEE      PTSUNNY   84  79  84 NW13      29.99S HX  96
WINTER HAVEN   CLOUDY    86  75  69 W10       30.00S HX  95
LAKELAND       PTSUNNY   82  77  83 W5        30.00F
BARTOW         PTSUNNY   86  73  66 W12       30.00S
OKEECHOBEE     PTSUNNY   90  77  66 MISG      30.00F HX 102

$$
FLZ041-047-054-059-064-141-147-291700-
EAST CENTRAL FLORIDA

CITY           SKY/WX    TMP DP  RH WIND       PRES   REMARKS
ORMOND BEACH   MOSUNNY   90  77  66 W12       29.95S HX 102
DAYTONA BEACH  MOSUNNY   89  76  65 W12       29.95S HX 100
DELAND         PTSUNNY   88  77  70 MISG      29.96F HX 100
NEW SMYRNA BEA MOSUNNY   91  77  62 W9G17     29.96R HX 105
JFK SPACE CTR  TSTM      82  81  94 W26G36    29.99R VSB 1   HX  95
TITUSVILLE     RAIN      90  77  66 NW23G40   29.99R HX 102
CAPE CANAVERAL DRIZZLE   90  77  66 W10       29.95S HX 102
PATRICK AFB    MOSUNNY   90  77  65 W8        29.96S HX 103
MELBOURNE      MOSUNNY   91  76  61 W12       29.97S HX 103
VERO BEACH     MOSUNNY   88  77  69 W10       29.99S HX 100
FT PIERCE      MOSUNNY   92  73  53 W12       29.99S HX 100
STUART         PTSUNNY   90  73  58 W9        30.01S HX  98

STATION/POSITION SKY/WX   TEMP    WIND        PRES    WAVE   SWELL
                          AIR SEA DIR/SP/G            HT/PER HT/PER
                          (F)     (DEG/KT/KT) (MB)    (FT/S) (FT/S)
28.5N   80.2W              83 83  230/  8/ 10 1015.1R
28.9N   78.5W              84 84  250/ 16/ 17 1014.5S   5/ 6   2/ 9
TRIDENT PIER               87 85  250/  5/  9 1014.3S
28.4N   80.5W                 83                N/A     1/ 8
27.6N   80.2W                 82                N/A     1/ 2

$$
FLZ050-056-061-142-242-148-248-149-249-151-251-155-255-
160-260-291700-
WEST CENTRAL FLORIDA

CITY           SKY/WX    TMP DP  RH WIND       PRES   REMARKS
CRYSTAL RIVER  FAIR      84  73  70 W6        29.98S
INVERNESS      PTSUNNY   86  75  70 CALM      29.98S HX  95
BROOKSVILLE    CLOUDY    77  72  84 SW8       30.01F
ZEPHYRHILLS    PTSUNNY   77  72  83 NW8       30.01S
CLEARWATER     CLOUDY    86  76  71 W15       29.99S HX  96
TAMPA INTL     LGT RAIN  84  75  74 W7        29.99F
TAMPA EXEC     CLOUDY    81  73  78 CALM      30.00F
PLANT CITY     CLOUDY    86  75  70 W13G20    30.02S HX  95
MACDILL AFB    CLOUDY    86  80  81 W7        30.00S HX 100
ST PETERSBURG  CLOUDY    87  75  67 W13       29.98S HX  96
SARASOTA       PTSUNNY   92  75  57 W14       29.99S HX 103
VENICE         FAIR      90  77  66 W15G21    30.01F HX 102

STATION/POSITION SKY/WX   TEMP    WIND        PRES    WAVE   SWELL
                          AIR SEA DIR/SP/G            HT/PER HT/PER
                          (F)     (DEG/KT/KT) (MB)    (FT/S) (FT/S)
CEDAR KEY                  80     320/  5/  6 1015.2S
28.5N   84.5W              83 85  290/ 14/ 16 1015.4R   4/ 6   2/ 9
27.3N   84.3W                 87                N/A     4/ 6
CLEARWATER BEACH           86 87  270/ 13/ 17 1015.2F
MIDDLE TAMPA BAY           86     290/ 14/ 16 1015.9F
VENICE                     86 89  270/ 13/ 15 1015.6F

$$
FLZ066-069-070-075>078-162-262-165-265-291700-
SOUTHWEST FLORIDA AND KEYS

CITY           SKY/WX    TMP DP  RH WIND       PRES   REMARKS
PUNTA GORDA    PTSUNNY   91  76  61 W16G22    30.02F HX 103
FT MYERS       PTSUNNY   87  78  74 W10       30.01F HX 100
SOUTHWEST INTL MOSUNNY   86  75  69 W7        30.02S HX  95
NAPLES         MOSUNNY   89  80  74 W10       30.02F HX 106
MARATHON       SUNNY     93  76  57 VRB7      30.05R HX 105
KEY WEST NAS   MOSUNNY   90  76  63 NW9       30.05S HX 101
KEY WEST INTL  CLOUDY    89  75  63 W8        30.05S HX  99

STATION/POSITION SKY/WX   TEMP    WIND        PRES    WAVE   SWELL
                          AIR SEA DIR/SP/G            HT/PER HT/PER
                          (F)     (DEG/KT/KT) (MB)    (FT/S) (FT/S)
VENICE                     86 89  270/ 13/ 15 1015.6F
NAPLES                     87 92  280/  9/ 12 1017.4S
DRY TORTUGAS               85     280/  8/  9 1017.8F
NW FL BAY                  87     300/  9/ 11 1017.1R
SAND KEY                   85     280/  8/  9 1017.8R
SOMBRERO KEY               86     240/  5/  7 1018.3R
LONG KEY                   86 91  270/  8/  9 1018.1R
MOLASSES REEF              82 87  120/  1/  2 1017.5R

$$
FLZ067-068-071>074-168-172>174-291700-
SOUTHEAST FLORIDA

CITY           SKY/WX    TMP DP  RH WIND       PRES   REMARKS
W PALM BEACH   MOSUNNY   90  73  57 W13       30.00S HX  98
FT LAUDER-EXEC MOSUNNY   91  74  57 SW7       30.02S HX 100
FT LAUDERDALE  MOSUNNY   92  73  53 W5        30.02S HX 100
POMPANO BEACH  MOSUNNY  N/A N/A N/A MISG      30.02S
PEMBROKE PINES MOSUNNY   90  76  63 W8        30.03F HX 101
OPA LOCKA      MOSUNNY   89  75  63 VRB3      30.03S HX  99
MIAMI          PTSUNNY   89  73  59 VRB7      30.03S HX  97
WEST KENDALL   MOSUNNY   93  73  52 NW10      30.03S HX 102
HOMESTEAD      MOSUNNY   91  73  55 W8        30.03S HX  99

STATION/POSITION SKY/WX   TEMP    WIND        PRES    WAVE   SWELL
                          AIR SEA DIR/SP/G            HT/PER HT/PER
                          (F)     (DEG/KT/KT) (MB)    (FT/S) (FT/S)
PORT EVERGLADES            89     210/  4/  6 1016.6
VIRGINIA KEY               87 89  200/  5/  6   N/A
LAKE WORTH                 88 82              1016.0R
FOWEY ROCKS                88 86  240/  5/  6 1017.5S
SETTLEMENT POINT           84     250/ 10/ 11 1017.2F

$$



USA.gov is the U.S. government's official web portal to all federal, state and local government web resources and services.